www.pogodaiklimat.ru

Погода и климат >> Архив погоды >> Россия >> Бурятия >> Новая Курба


ПОГОДА в Новой Курбе

  • Прогноз погоды в Новой Курбе
  • Монитор погоды в Новой Курбе

АРХИВ ПОГОДЫ в Новой Курбе

Время (UTC), дата Ветер
(напр.,м/с)
 
Видим.   Явления Облачность Т
(С)
Тd
(С)
f
(%)
Тe
(С)
Тes
(С)
Комфортность P
(гПа)
Po
(гПа)
Тmin
(С)
Tmax
(С)
R
(мм)
R24
(мм)
S
(см)
21 11.09 ЮЗ 6
{11}
н/о слаб. ливневой дождь 10/10 1000 м
[Cb cap]
+9.8 +8.5 92 +6 +6 1007.2 941.4
00 12.09 ЮЗ 5 50 км {ливн. осадки} 10/8 1000 м
[Cb cap Ci fib]
+9.4 +6.3 81 +6 +6 1009.4 943.4 +8.6 2
03 12.09 З 6 50 км 10/10 1000 м
[Cb cap]
+12.2 +6.6 69 +10 +10 1010.2 944.8
06 12.09 СЗ 4
{10}
50 км 10/10 1000 м
[Cb cap]
+13.7 +5.8 59 +12 +12 1009.5 944.5
09 12.09 СЗ 3 50 км 8/6 1000 м
[Cb cap Ac trans Ci fib]
+16.2 +3.4 42 +16 +16 1008.3 943.8
12 12.09 З 4
{11}
н/о 6/6 1000 м
[Cb cap]
+12.1 +3.8 57 +10 +10 1011.1 945.5 +16.3
15 12.09 З 2 н/о 4/0
[Ac trans Ci fib]
+6.9 +4.0 82 +5 +5 1013.3 946.4
00 13.09 ЮЗ 5 50 км в посл. час ливневой дождь 8/6 1000 м
[Cb cap Ac trans]
+6.3 +4.5 88 +2 +2 1016.6 949.4 +4.3 4
06 13.09 ЮЗ 5
{10}
50 км 6/4 1000 м
[Cb cap Ci fib]
+13.1 +0.9 43 +11 +14 1013.5 947.9
09 13.09 ЮЗ 5 50 км 9/9 1000 м
[Cb cap]
+11.8 +1.3 49 +10 +10 1012.7 946.9
12 13.09 СВ 1 н/о 8/8 1000 м
[Sc]
+9.8 +3.5 65 +10 +10 1012.5 946.3 +13.7
15 13.09 С 2 н/о 10/10 1000 м
[Cb cap]
+7.1 +3.6 78 +5 +5 1012.3 945.5
18 13.09 В 2 н/о 10/10 1000 м
[Cb cap]
+6.3 +4.5 88 +4 +4 1010.6 943.7
21 13.09 В 1 н/о 10/10 1000 м
[Cb cap]
+5.7 +3.9 88 +4 +4 1010.3 943.3
00 14.09 штиль 0 50 км 10/10 1000 м
[Cb cap]
+5.8 +4.4 91 +5 +5 1010.3 943.4 +5.4
03 14.09 ЮЗ 3 50 км 10/3 1000 м
[Cb cap Ac trans Ci fib]
+11.4 +5.1 65 +10 +12 1008.4 942.9
06 14.09 З 8-12
{13}
50 км 10/8 1000 м
[Cb cap Cs]
+13.8 -1.5 35 +12 +12 1007.5 942.5
09 14.09 З 5
{14}
50 км 9/5 1000 м
[Cb cap Ac trans Cc]
+9.9 +1.3 55 +7 +7 1010.9 944.9
12 14.09 З 6
{10}
н/о 8/6 1000 м
[Cb cap Ac trans]
+7.4 -2.5 49 +4 +4 1013.8 946.9 +15.2
15 14.09 С 7-11
{14}
н/о 3/0
[Ac trans]
+4.1 -9.2 37 -1 -1 1018.5 950.5
18 14.09 З 2
{11}
н/о ясно -0.1 -7.7 57 -3 -3 1022.0 952.7
21 14.09 Ю 3 н/о 3/0
[Ci fib]
-1.7 -6.8 68 -6 -6 1022.9 953.2
00 15.09 ЮЗ 3 50 км ясно -0.4 -5.9 66 -5 -4 1023.2 953.9 -3.0
03 15.09 ЮЗ 6 50 км 4/0
[Ci fib]
+6.4 -5.0 44 +2 +5 1019.8 952.3
06 15.09 ЮЗ 7
{11}
50 км 10/4 1000 м
[Sc Ac lent Ci fib]
+11.2 -2.5 38 +8 +9 1015.5 949.3
09 15.09 ЮЗ 6-10
{13}
50 км 10/8 1000 м
[Cb cap Ci fib]
+11.6 -0.9 42 +9 +9 1014.0 948.1
12 15.09 З 4
{11}
н/о 10/8 1000 м
[Cb cap Ac trans Ci fib]
+10.2 +1.0 53 +8 +8 1014.0 947.8 +11.9
15 15.09 З 6 н/о 9/3 1000 м
[Cb cap Ac trans]
+9.9 +1.0 54 +7 +7 1013.9 947.7
18 15.09 В 2 н/о 10/6 1000 м
[Cb cap Ac trans]
+6.5 +2.5 76 +4 +4 1013.5 946.5
21 15.09 штиль 0 н/о 10/0
[Ac und]
+3.8 +1.7 86 +3 +3 1013.7 946.1
00 16.09 ЮЗ 2 50 км 8/0
[Ac trans Ci fib]
+5.5 +3.1 85 +3 +4 1013.6 946.3 +2.5
03 16.09 З 7-11
{11}
50 км 10/6 1000 м
[Sc Ac trans Ci fib]
+11.8 +3.6 57 +9 +9 1011.9 946.2
06 16.09 З 7-12
{14}
50 км 10/10 1000 м
[Cb cap]
+12.2 +3.8 56 +10 +10 1011.8 946.2
12 16.09 СЗ 2
{18}
н/о в посл. час ливневой дождь 10/10 1000 м
[Cb cap]
+4.5 +1.7 82 +2 +2 1017.8 950.0 +12.9 1
15 16.09 СЗ 1
{10}
н/о 1/1 1000 м
[Sc]
+4.5 -1.6 65 +4 +4 1021.5 953.4
18 16.09 СЗ 4 н/о 3/1 1000 м
[Sc Ac trans]
+3.3 -2.7 65 -1 -1 1024.4 955.9
21 16.09 З 3 н/о 4/4 1000 м
[Sc]
+0.3 -3.4 76 -4 -4 1026.8 957.4
00 17.09 ЮЗ 4 50 км 4/3 1000 м
[Sc Ci fib]
+2.0 -2.6 72 -3 -2 1028.5 959.4 -1.3
12 17.09 З 2 н/о ясно +7.7 -4.1 43 +6 +6 1024.9 957.3 +13.1
00 18.09 В 3 50 км 4/0
[Ci fib]
+0.7 -4.0 71 -4 -3 1025.3 956.1 -1.7
12 18.09 З 3 н/о ясно +10.2 +4.2 66 +8 +8 1018.1 951.6 +14.6

 

Местоположение метеостанции Новая Курба (Бурятия, Россия): широта 52.04 долгота 108.51 высота над уровнем моря 559 м.

В архиве по умолчанию представлена погода в Новой Курбе за последнюю неделю. Архивные данные за месяц целиком и за предыдущие месяцы, начиная с января 2011 года, Вы можете получить, выбрав интересующий диапазон дат из раскрывающегося списка и нажав кнопку "Ввод!".


*Определитесь, кто Вы:
робот инопланетянин человек

Внимание! Время в таблицах - всемирное. Для получения местного времени необходимо прибавить поправку, которая равна 8 ч.

Смотрите также архив погоды в соседних городах и на ближайших метеорологических станциях:

Погода в Улан-Удэ АМС (Бурятия, Россия) (58 км)
Погода в Улан-Удэ (Бурятия, Россия) (67 км)
Погода в Петровском Заводе (Забайкальский край, Россия) (83 км)
Погода в Хоринске (Бурятия, Россия) (83 км)
Погода в Иволгинске (Бурятия, Россия) (96 км)
Погода в Горячинске (Бурятия, Россия) (107 км)
Погода в Сухой (Бурятия, Россия) (111 км)
Погода в Мухоршибири (Бурятия, Россия) (123 км)
Погода в Замокте (Бурятия, Россия) (124 км)
Погода в Кабанске (Бурятия, Россия) (131 км)

Пояснения к столбцам:

Ветер - указаны скорость ветра в м/с - средняя за 10 мин, порывы в срок и между сроками (в фигурных скобках) и направление, откуда дует ветер: С - северный, СВ - северо-восточный, В - восточный, ЮВ - юго-восточный, Ю - южный, ЮЗ - юго-западный, З - западный, СЗ - северо-западный.
Видимость - горизонтальная дальность видимости в метрах или километрах. При видимости от 1 до 10 км при отсутствии осадков обычно наблюдается дымка, при ухудшении видимости до 1 км и менее - туман. В сухую погоду видимость может ухудшаться дымом, пылью или мглою.
Явления - указаны атмосферные явления, наблюдавшиеся в срок или в последний час перед сроком; фигурными скобками обозначены явления, наблюдавшиеся между сроками (за 1-3 часа до срока); квадратными скобками обозначены град или гололедные отложения с указанием их диаметра в мм.
Облачность - указаны через наклонную черту общая и нижняя облачность в баллах и высота нижней границы облаков в метрах; квадратными скобками обозначены формы облаков: Ci - перистые, Cs - перисто-слоистые, Cc - перисто-кучевые, Ac - высококучевые, As - высокослоистые, Sc - слоисто-кучевые, Ns - слоисто-дождевые, Cu - кучевые, Cb - кучево-дождевые. Подробнее классификацию облаков см. в Атласе облаков (PDF).
T - Температура воздуха - температура, измеренная на высоте 2 м над землей.
Td - Температура точки росы - температура, при понижении до которой содержащийся в воздухе водяной пар достигнет насыщения.
f - Относительная влажность воздуха - влажноcть воздуха, измеренная на высоте 2 м над землей.
Te - Эффективная температура - температура, которую ощущает одетый по сезону человек в тени. Характеристика душности погоды. При расчете учитывается влияние влажности воздуха и скорости ветра на теплоощущения человека.
Tes - Эффективная температура на солнце - температура, которую ощущает человек, с поправкой на солнечный нагрев. Характеристика знойности погоды. Зависит от высоты солнца над горизонтом, облачности и скорости ветра. Ночью, в пасмурную погоду, а также при ветре 12 м/с и более поправка равна нулю.
P - Атмосферное давление - приведенное к уровню моря атмосферное давление.
Po - Атмосферное давление - измеренное на уровне метеостанции атмосферное давление.
Tmin - Минимальная температура - минимум температуры воздуха на высоте 2 м над землей.
Tmax - Максимальная температура - максимум температуры воздуха на высоте 2 м над землей.
R - Количество осадков - Количество выпавших осадков за период времени, мм. При наведении курсора мыши на число - период времени, за который выпало указанное количество осадков.
R24 - Количество осадков - Количество выпавших осадков за 24 часа, мм.
S - Снежный покров - Высота снежного покрова, см. При наведении курсора мыши на число - состояние снежного покрова и степень покрытия местности в баллах.